ONEWEB-0275, 48993

Orbit data source: Space-Track

ONEWEB-0275, 48993 is a payload satellite owned by One Web (NAA) (UK) in LEO that was launched on Thu, 01 Jul 2021 UTC via a SOYUZ-2-1B launch vehicle from the Vostochny Cosmodrome (VOSTO). Payload-class satellites include a variety of spacecraft equipped with specific instruments for various scientific and technological missions. These include communications satellites like Starlink; space stations such as the ISS; scientific satellites like the Hubble; Earth observation satellites from companies like Planet Labs, Umbra, and HawkEye 360; GPS; miniature CubeSats for education and research; and military/defense satellites.

Loading next visibility...
Identifier
48993, 2021-060AC
Orbit
LEO
Country
Flag of UKUK
Related business
Manufacturer
One Web
Mission
Operational Commercial Communications
Bus & Motor
ARROW, Unknown motor
Mass
148 kg wet, ~140 kg dry
Launch date (UTC)
2021-07-01 (4 years ago)
Launch vehicle
SOYUZ-2-1B
Launch site
Vostochny Cosmodrome (VOSTO)
Object type
Payload
Rocket body
Debris
Shape & HBR
Trap Box + 2 Pan, 6.7 m
Radar Cross Section
3.464 m², Large (>1 m²)

Expand to show TLE details & history
Last TLE update: 20 hours ago

TLE from 20 hours ago
0 ONEWEB-0275
1 48993U 21060AC  25348.78480445  .00000002  00000-0 -28661-4 0  9994
2 48993  87.9047 265.4938 0001806  73.5465 286.5864 13.16595542215291
Epoch: 2025-12-14T18:50Z
TLE epoch observation values (Epoch: 2025-12-14T18:50:07.104Z)
Latitude
-0.00005°
Longitude
-100.72855°
Altitude
1,200.258 km
Speed
7.254 km/s
True Right ascension
17h 41m 58s
True Declination
0° 00' 00"
Sunlit
Object was in daylight at epoch
Visualization orbit readout
Latitude
Unknown
Longitude
Unknown
Altitude
Unknown
Speed
Unknown
Apparent Right ascension
Unknown
Apparent Declination
Unknown
Sunlit
N/A
Visualization observer readout
Local Sidereal Time
13:23:43
Azimuth
Unknown
Elevation
Unknown
Doppler factor
Unknown
Orbital elements
Apogee altitude
1,196.23 km
Perigee altitude
1,193.494 km
Semi-major axis
7,572.999 km
Eccentricity
0.00018
Inclination
87.9047°
RAAN
265.4938°
Arg. of periapsis
73.5465°
True anomaly
286.56656°
Mean anomaly
286.5864°
Eccentric anomaly
286.57648°
Mean motion
3.29338 °/min
Orbital period
109.31 mins
BSTAR
-0.000028661
Loading maneuver chart data...
Computing Atmospheric mass density...
Loading historical data...
Loading historical data...
Loading historical data...
Loading historical data...
Loading historical data...
Loading historical data...
Loading historical data...

Documentation

Showing up to 5 results
|